Regional Weather Roundup
Issued by NWS

Home | Current Version | Previous Version | Text Only | Print | Product List | Glossary Off
Versions: 1 2 3 4 5 6 7 8 9 10 11 12 13 14 15 16 17 18 19 20 21 22 23 24 25 26 27 28 29 30 31 32 33 34 35 36 37 38 39 40 41 42 43 44 45 46 47 48 49 50

000
ASUS43 KLSX 131059
RWRMO

WEATHER SUMMARY FOR MISSOURI
NATIONAL WEATHER SERVICE SPRINGFIELD MO
600 AM CDT SUN JUL 13 2014

NOTE: "FAIR" INDICATES FEW OR NO CLOUDS BELOW 12,000 FEET WITH NO
       SIGNIFICANT WEATHER AND/OR OBSTRUCTIONS TO VISIBILITY.
       CURRENT SKY AND/OR WEATHER CONDITIONS ARE NOT AVAILABLE FOR
       CHILLICOTHE AND FARMINGTON.

MOZ001>031-035>038-043-044-053-054-131200-
...NORTHERN AND WESTERN MISSOURI...

CITY           SKY/WX    TMP DP  RH WIND       PRES   REMARKS
KANSAS CTY INT HVY RAIN  71  68  90 N8        30.04S FOG
KANSAS C DTWN  CLOUDY    73  68  84 W6        30.04R
LEE`S SUMMIT   MOCLDY    74  66  76 N7        30.05R
ST JOSEPH      LGT RAIN  71  70  96 S6        30.00F
CHILLICOTHE      N/A     71  69  93 CALM      30.03R
KIRKSVILLE     CLOUDY    70  70 100 N3        30.02S

$$
MOZ066>068-077>081-088>096-101>105-131200-
...SOUTHWEST MISSOURI...

CITY           SKY/WX    TMP DP  RH WIND       PRES   REMARKS
SPRINGFIELD    CLEAR     72  66  81 SW7       30.05R
JOPLIN         CLEAR     76  64  66 SW12      30.04R

$$
MOZ032>034-039>042-045>050-055>058-069>072-131200-
...CENTRAL MISSOURI...

CITY           SKY/WX    TMP DP  RH WIND       PRES   REMARKS
COLUMBIA       MOCLDY    77  66  68 W7        30.02R
JEFFERSON CITY MOCLDY    76  67  73 CALM      30.01R
ROLLA          MOCLDY    73  67  81 S10       30.02R
SEDALIA        CLOUDY    77  66  68 W5        30.03R
OSAGE BEACH    PTCLDY    75  64  69 SW3       30.02R

$$
MOZ051-052-059>065-131200-
...EAST CENTRAL MISSOURI...

CITY           SKY/WX    TMP DP  RH WIND       PRES   REMARKS
ST LOUIS INTL  MOCLDY    80  70  71 NW5       30.01R
SPIRIT OF STL  MOCLDY    77  70  79 VRB5      30.00R
ST CHARLES     MOCLDY    74  71  91 S5        29.99R

$$
MOZ072>076-082>087-097>100-106>115-131200-
...SOUTH CENTRAL AND SOUTHEAST MISSOURI...

CITY           SKY/WX    TMP DP  RH WIND       PRES   REMARKS
CAPE GIRARDEAU PTCLDY    74  72  93 CALM      30.02S
FARMINGTON       N/A    N/A N/A N/A MISG        N/A
POPLAR BLUFF   CLEAR     75  71  87 S3        30.02R
WEST PLAINS    MOCLDY    72  69  90 SW6       30.08R

$$



USA.gov is the U.S. government's official web portal to all federal, state and local government web resources and services.